This is the latest recevied weather packets stored in our database for station/object K6HFP. If no packets are shown the sender has not sent any weather packets the latest 10 day(s).
| Time | Temp. | Humidity | Pressure | Rain* | Wind** | Luminosity | Snow |
|---|---|---|---|---|---|---|---|
| 1777963826 | 10.56° C | 91% | 1013.3 hPa | 0 mm | - | 0 W/m² | - |
| 1777963522 | 10.56° C | 90% | 1013 hPa | 0 mm | - | 0 W/m² | - |
| 1777963221 | 10.56° C | 90% | 1013.4 hPa | 3.56 mm | - | 0 W/m² | - |
| 1777962918 | 10.56° C | 90% | 1013.3 hPa | 4.83 mm | - | 0 W/m² | - |
| 1777962613 | 10.56° C | 89% | 1013.2 hPa | 3.05 mm | - | 0 W/m² | - |
| 1777962311 | 10.56° C | 88% | 1013.6 hPa | 1.78 mm | - | 0 W/m² | - |
| 1777962008 | 10.56° C | 88% | 1013.7 hPa | 0 mm | - | 0 W/m² | - |
| 1777961705 | 10.56° C | 88% | 1013.6 hPa | 0 mm | - | 0 W/m² | - |
| 1777961403 | 10.56° C | 89% | 1013.6 hPa | 0 mm | - | 0 W/m² | - |
| 1777961100 | 10.56° C | 89% | 1013.6 hPa | 0 mm | - | 0 W/m² | - |
| 1777960796 | 10.56° C | 89% | 1013.3 hPa | 0 mm | - | 0 W/m² | - |
| 1777960492 | 10.56° C | 89% | 1013.3 hPa | 0 mm | - | 0 W/m² | - |
| 1777960189 | 10.56° C | 89% | 1013.3 hPa | 0 mm | - | 0 W/m² | - |
| 1777959887 | 10.56° C | 89% | 1013.4 hPa | 0 mm | - | 0 W/m² | - |
| 1777959584 | 10.56° C | 89% | 1013.5 hPa | 0 mm | - | 0 W/m² | - |
| 1777959281 | 10.56° C | 90% | 1013.5 hPa | 0 mm | - | 0 W/m² | - |
| 1777958978 | 10.56° C | 90% | 1013.7 hPa | 0 mm | - | 0 W/m² | - |
| 1777958675 | 10.56° C | 90% | 1013.4 hPa | 0 mm | - | 0 W/m² | - |
| 1777958372 | 10.56° C | 90% | 1013.3 hPa | 0 mm | - | 0 W/m² | - |
| 1777958069 | 10.56° C | 91% | 1013.9 hPa | 0 mm | - | 0 W/m² | - |
| 1777957767 | 10.56° C | 91% | 1013.6 hPa | 0 mm | - | 0 W/m² | - |
| 1777957465 | 10.56° C | 91% | 1013.6 hPa | 0 mm | - | 0 W/m² | - |
| 1777957162 | 10.56° C | 91% | 1013.6 hPa | 0 mm | - | 0 W/m² | - |
| 1777956859 | 10.56° C | 91% | 1013.6 hPa | 0 mm | - | 0 W/m² | - |
| 1777956555 | 10.56° C | 92% | 1013.9 hPa | 0 mm | - | 0 W/m² | - |
* Rain latest hour (hover to see other rain measurements)
** Current wind speed in m/s (hover to see current wind gust speed)